Home   Weather   Foz do Iguaçu   Past weeks

Flag for Brazil Past Weather in Foz do Iguaçu, Paraná, Brazil — Yesterday and Last 2 Weeks

73 °F

Broken clouds.

Feels Like: 70 °F
Forecast: 64 / 76 °F
Wind: 13 mph from North

Location: Foz Do Iguacu Aeroporto

Current Time: Oct 26, 2016 at 1:32:49 PM

Latest Report: Oct 26, 2016 at 1:00 PM

Visibility: N/A

Pressure: 29.83 "Hg

Humidity: 94%

Dew Point: 72 °F

Location of Foz do IguaçuLocation

Past Weather in Foz do Iguaçu — Graph


Foz do Iguaçu Temperature Yesterday

Maximum temperature yesterday: 73 °F (at 11:00 AM)
Minimum temperature yesterday: 68 °F (at 3:00 AM)
Average temperature yesterday: 71 °F

High & Low Weather Summary for the Past Weeks

High99 °F (Oct 17, 5:00 PM)100% (Oct 12, 10:00 AM)30.04 "Hg (Oct 12, 10:00 AM)
Low59 °F (Oct 22, 4:00 AM)39% (Oct 17, 5:00 PM)29.65 "Hg (Oct 16, 7:00 PM)
Average76 °F78%29.85 "Hg
* Reported Oct 11 11:00 AM — Oct 26 12:00 PM, Foz do Iguaçu, Weather by CustomWeather, © 2016

Note: Actual official high and low records may vary slightly from our data, if they occured in-between our weather recording intervals... More about our weather records


Foz do Iguaçu Weather History for the Previous 24 Hours

Scroll right to see more
Time TempWeatherWind HumidityBarometerVisibility
12:00 PM
Wed, Oct 26
73 °FLight rain. Broken clouds.12 mph100%29.86 "Hg6 mi
10:00 AM70 °FRain. Fog.8 mph100%N/A2 mi
9:00 AM70 °FThunderstorms. Fog.8 mph100%29.86 "Hg2 mi
8:00 AM70 °FThunderstorms. Fog.2 mph100%29.83 "Hg2 mi
7:00 AM70 °FThunderstorms. More clouds than sun.6 mph100%N/A5 mi
6:00 AM70 °FThunderstorms. Mostly cloudy.6 mph100%N/AN/A
5:00 AM70 °FPassing clouds.6 mph100%29.74 "HgN/A
4:00 AM70 °FClear.2 mph100%29.77 "Hg10 mi
3:00 AM70 °FOvercast.6 mph100%29.80 "HgN/A
2:00 AM70 °FPassing clouds.6 mph100%29.83 "HgN/A
1:00 AM70 °FPassing clouds.3 mph100%29.86 "HgN/A
12:00 AM70 °FPartly cloudy.5 mph100%29.86 "HgN/A
11:00 PM
Tue, Oct 25
72 °FClear.6 mph100%29.83 "Hg10 mi
10:00 PM72 °FPassing clouds.10 mph100%29.83 "HgN/A
9:00 PM72 °FLight rain. Passing clouds.9 mph100%29.83 "HgN/A
8:00 PM70 °FThunderstorms. Fog.8 mph100%29.86 "Hg1 mi
7:00 PM72 °FThunderstorms. Broken clouds.10 mph100%29.80 "HgN/A
6:00 PM73 °FBroken clouds.12 mph94%29.77 "HgN/A
5:00 PM72 °FThunderstorms. More clouds than sun.10 mph100%29.80 "HgN/A
4:00 PM70 °FThunderstorms. Mostly cloudy.9 mph100%N/A4 mi
3:00 PM70 °FThunderstorms. Mostly cloudy.9 mph100%N/A5 mi
2:00 PM68 °FStrong thunderstorms. Fog.8 mph100%29.89 "Hg1 mi
1:00 PM70 °FStrong thunderstorms. Fog.10 mph100%29.86 "Hg1 mi
Weather by CustomWeather, © 2016

See weather overviewHow to use our weather pages